Погода в Ходжикенте

Узбекистан     41°38′08″N   69°56′58″E
В апреле 2022 года жителям России запретили посещать сайт meteo.paraplan.net по решению Генеральной прокуратуры. Аудитория сайта уменьшилась в 10 раз. Владельцы сайта не видят смысла в поддержке погодного сервера в таких условиях. Сайт будет закрыт в октябре.
темп.,
°C
ветер,
м/с
пор.,
м/с
влажн.,
%
обл.,
%
осадки,
мм/ч
давл.,
гПа
погр.,
м
3 октября, пн
пн323:00+9всв323629 0.0 101616
02:00+9всв323799 0.0 101519
05:00+11ссв1135100 0.0 101511
08:00+12св2349100 0.3 1015167
11:00+16зюз333588 0.4 10141936
14:00+16з4333100 0.3 10141921
17:00+13сз1138100 1.1 1017789
20:00+10вюв114987 0.0 101912
4 октября, вт
вт423:00+9в21517 0.0 102011
02:00+8всв22495 0.0 102011
05:00+7всв33475 0.0 102018
08:00+11всв22361 0.0 1021126
11:00+16юз452360 0.0 10201858
14:00+17юз45191 0.0 10202090
17:00+15зюз33220 0.0 10201585
20:00+9ссв11340 0.0 102211
5 октября, ср
ср523:00+8в21370 0.0 102210
02:00+7всв22380 0.0 102211
05:00+6всв33390 0.0 102316
08:00+9в22280 0.0 1023127
11:00+14юз33170 0.0 10211316
14:00+16зюз44120 0.0 10201962
17:00+14зюз32120 0.0 1020590
20:00+7вюв11240 0.0 102210
6 октября, чт
чт623:00+7всв22240 0.0 102213
02:00+6св33250 0.0 102224
05:00+6св43290 0.0 102231
08:00+10всв34280 0.0 1022128
11:00+17ссз1290 0.0 10191635
14:00+19зсз43100 0.0 10172464
17:00+16зсз23130 0.0 1019418
20:00+11св22210 0.0 102112
7 октября, пт
пт723:00+9св33230 0.0 102120
02:00+9св33260 0.0 102121
05:00+8св43250 0.0 102225
08:00+13всв23180 0.0 1021100
11:00+19зюз32110 0.0 10191462
14:00+20з43100 0.0 10182288
17:00+17зсз23130 0.0 1020178
20:00+11всв22220 0.0 102210